PDT,Max TemperatureF,Mean TemperatureF,Min TemperatureF,Max Dew PointF,MeanDew PointF,Min DewpointF,Max Humidity, Mean Humidity, Min Humidity, Max Sea Level PressureIn, Mean Sea Level PressureIn, Min Sea Level PressureIn, Max VisibilityMiles, Mean VisibilityMiles, Min VisibilityMiles, Max Wind SpeedMPH, Mean Wind SpeedMPH, Max Gust SpeedMPH,PrecipitationIn, CloudCover, Events, WindDirDegrees
2012-9-1,69,60,52,51,48,44,83,69,40,30.15,30.11,30.01,10,10,10,9,4,20,0.00,0,,34
2012-9-2,69,60,51,50,47,46,86,68,47,30.22,30.18,30.16,10,10,10,6,3,,0.00,2,,338
2012-9-3,69,60,53,54,52,49,100,84,52,30.20,30.17,30.14,10,5,0,8,5,,0.00,3,Fog,357
2012-9-4,70,61,52,54,52,49,89,72,55,30.23,30.19,30.12,10,10,7,7,2,,0.00,1,,349
2012-9-5,73,64,54,54,53,50,86,70,48,30.12,30.03,29.96,10,10,10,7,2,,0.00,0,,354
2012-9-6,77,65,55,54,51,47,89,63,41,30.07,30.03,29.97,10,10,10,8,5,,0.00,0,,356
2012-9-7,82,69,57,51,48,44,75,48,31,30.15,30.10,30.05,10,10,10,8,3,,0.00,0,,12
2012-9-8,79,68,59,55,50,46,83,57,33,30.04,29.98,29.92,10,10,10,10,3,,0.00,0,,325
2012-9-9,64,60,57,54,51,48,82,72,60,30.02,29.98,29.94,10,10,10,25,13,33,0.00,7,Rain,183
2012-9-10,62,56,51,54,47,41,94,75,51,30.23,30.10,29.96,10,8,2,15,9,23,0.24,6,Rain,333
2012-9-11,63,56,51,47,44,40,86,67,48,30.33,30.30,30.24,10,10,10,8,4,,0.00,3,,356
2012-9-12,64,56,48,46,45,42,90,69,48,30.38,30.32,30.26,10,10,10,10,5,,0.01,0,,358
2012-9-13,73,62,50,48,46,44,86,61,37,30.26,30.16,30.07,10,10,10,6,3,,0.00,2,,359
2012-9-14,73,64,54,51,48,47,80,60,40,30.10,30.07,30.04,10,10,10,6,2,,0.00,0,,3
2012-9-15,73,62,52,51,49,47,86,67,46,30.19,30.15,30.08,10,10,10,7,2,,0.00,0,,352
2012-9-16,71,60,51,54,51,47,94,74,53,30.24,30.19,30.14,10,8,0,8,3,,0.00,1,Fog,3
2012-9-17,75,65,55,52,50,46,89,62,38,30.14,30.09,30.02,10,10,10,7,2,,0.00,0,,180
2012-9-18,79,66,55,55,50,47,84,59,37,30.09,30.04,30.02,10,10,7,5,1,,0.00,0,,310
2012-9-19,72,60,50,53,51,48,100,81,51,30.17,30.13,30.08,10,7,0,7,1,,0.00,1,Fog,341
2012-9-20,69,60,50,53,50,48,96,86,54,30.11,30.09,30.04,10,4,0,6,2,,0.00,2,Fog,265
2012-9-21,59,56,55,55,53,51,94,89,81,30.15,30.14,30.12,10,7,0,8,5,,0.01,8,Fog-Rain,205
2012-9-22,63,58,53,55,51,45,94,83,56,30.17,30.15,30.14,10,6,2,6,1,,0.04,6,Rain,355
2012-9-23,64,56,48,49,46,43,80,70,54,30.18,30.15,30.13,10,10,10,7,2,,0.00,1,,353
2012-9-24,66,58,52,53,48,45,90,72,52,30.16,30.13,30.11,10,10,10,7,3,,0.00,2,,354
2012-9-25,64,58,51,52,50,48,100,83,56,30.16,30.13,30.11,10,7,0,8,3,,0.00,5,Fog,352
2012-9-26,64,56,48,50,48,46,100,84,56,30.14,30.11,30.07,10,6,0,6,3,,0.01,1,Fog,359
2012-9-27,69,60,50,52,49,46,96,77,49,30.09,30.05,29.96,10,7,0,7,1,,0.01,1,Fog,359
2012-9-28,71,64,55,56,53,50,94,77,51,30.03,29.99,29.94,10,9,6,6,2,,0.00,3,Rain,352
2012-9-29,64,58,51,54,48,44,94,75,48,30.31,30.18,30.05,10,10,2,9,6,16,0.00,5,,2
2012-9-30,64,55,46,47,46,43,100,80,45,30.41,30.37,30.32,10,6,0,7,2,,0.00,1,Fog,14